Lancaster, OH

5:23 AM EDT on October 18, 2017 (GMT -0400)
Fairfield County

Weather History for KLHQ - October, 2012

Change the Weather History Date:

Monday, October 22, 2012

  Actual Average Record
Temperature  
Mean Temperature 57 °F -  
Max Temperature 75 °F 61 °F 85 °F (1947)
Min Temperature 39 °F 38 °F 18 °F (1969)
Degree Days  
Heating Degree Days 8    
Growing Degree Days 7 (Base 50)    
Moisture  
Dew Point 46 °F    
Average Humidity 68    
Maximum Humidity 93    
Minimum Humidity 40    
Precipitation  
Precipitation 0.00 in - - ()
Sea Level Pressure  
Sea Level Pressure 30.12 in    
Wind  
Wind Speed 3 mph (South)    
Max Wind Speed 10 mph    
Max Gust Speed -    
Visibility 10 miles    
Events      
Averages and records for this station are not official NWS values.
T = Trace of Precipitation, MM = Missing Value Source: NWS Daily Summary

Daily Weather History Graph

Daily Weather History Graph

Search for Another Location

Airport or City:

Trip Planner

Search our weather history database for the weather conditions in past years. The results will help you decide how hot, cold, wet, or windy it might be!

Date:

Astronomy

Oct. 22, 2012 Rise Set
Actual Time 7:48 AM EDT 6:40 PM EDT
Civil Twilight 7:21 AM EDT 7:08 PM EDT
Nautical Twilight 6:49 AM EDT 7:39 PM EDT
Astronomical Twilight 6:18 AM EDT 8:10 PM EDT
Moon 2:47 PM EDT (10/22) 12:35 AM EDT (10/22)
Length of Visible Light 11h 46m
Length of Day
10h 51m
First Quarter, 56% of the Moon is Illuminated
Oct 22
First Quarter
Oct 29
Full
Nov 6
Last Quarter
Nov 13
New
Nov 20
First Quarter

Hourly Weather History & Observations

Time (EDT) Temp. Windchill Dew Point Humidity Pressure Visibility Wind Dir Wind Speed Gust Speed Precip Events Conditions
12:53 AM 39.0 °F - 37.0 °F 93% 30.14 in 8.0 mi Calm Calm - N/A   Clear
1:53 AM 39.0 °F - 37.0 °F 93% 30.14 in 6.0 mi Calm Calm - N/A   Clear
2:53 AM 39.0 °F 36.8 °F 37.0 °F 93% 30.14 in 9.0 mi SSW 3.5 mph - N/A   Clear
3:53 AM 39.9 °F - 37.9 °F 93% 30.14 in 9.0 mi Calm Calm - N/A   Clear
4:53 AM 39.9 °F - 37.0 °F 89% 30.14 in 9.0 mi Calm Calm - N/A   Clear
5:53 AM 41.0 °F 39.0 °F 37.9 °F 89% 30.15 in 10.0 mi South 3.5 mph - N/A   Clear
6:53 AM 41.0 °F - 37.9 °F 89% 30.17 in 9.0 mi Calm Calm - N/A   Scattered Clouds
7:53 AM 45.0 °F 41.8 °F 39.9 °F 82% 30.17 in 10.0 mi SSE 5.8 mph - N/A   Clear
8:53 AM 48.0 °F - 41.0 °F 77% 30.17 in 10.0 mi SSE 6.9 mph - N/A   Clear
9:53 AM 51.1 °F - 43.0 °F 74% 30.18 in 10.0 mi SSE 4.6 mph - N/A   Clear
10:53 AM 59.0 °F - 46.9 °F 64% 30.17 in 10.0 mi SE 4.6 mph - N/A   Clear
11:53 AM 66.0 °F - 50.0 °F 56% 30.16 in 10.0 mi Variable 3.5 mph - N/A   Clear
12:53 PM 71.1 °F - 50.0 °F 47% 30.13 in 10.0 mi SSW 4.6 mph - N/A   Mostly Cloudy
1:53 PM 75.0 °F - 51.1 °F 43% 30.11 in 10.0 mi WSW 5.8 mph - N/A   Clear
2:53 PM 75.9 °F - 50.0 °F 40% 30.09 in 10.0 mi SSW 6.9 mph - N/A   Clear
3:53 PM 75.9 °F - 50.0 °F 40% 30.09 in 10.0 mi SSW 10.4 mph - N/A   Clear
4:53 PM 73.0 °F - 52.0 °F 48% 30.09 in 10.0 mi SSW 3.5 mph - N/A   Clear
5:53 PM 73.0 °F - 53.1 °F 49% 30.09 in 10.0 mi Calm Calm - N/A   Overcast
6:53 PM 69.1 °F - 53.1 °F 57% 30.09 in 10.0 mi SSW 3.5 mph - N/A   Mostly Cloudy
7:53 PM 66.9 °F - 53.1 °F 61% 30.09 in 10.0 mi South 4.6 mph - N/A   Overcast
9:53 PM 64.9 °F - 51.1 °F 61% 30.08 in 10.0 mi SSW 3.5 mph - N/A   Clear
10:53 PM 64.9 °F - 52.0 °F 63% 30.06 in 10.0 mi South 4.6 mph - N/A   Partly Cloudy
11:53 PM 64.9 °F - 51.1 °F 61% 30.06 in 10.0 mi South 3.5 mph - N/A   Scattered Clouds